Theta_e
322 323 324 324 322 324 325 327 329 331 330 328 329 331 329 328 330 334 332 329 329 329 329 327 327 331 328 333 336 338 340 338 333 334 334 345 342 342 345 345 343 340 340
320 318 319 322 322 322 323 326 329 329 329 328 328 328 326 324 327 328 326 325 324 322 322 323 322 323 331 333 331 336 336 338 337 333 330 338 342 344 344 342 338 339 341
315 314 317 321 321 322 323 325 327 328 328 327 326 326 325 322 325 327 325 324 323 323 323 322 322 324 325 324 328 328 327 328 330 334 333 339 337 336 337 336 336 338 338
315 315 316 316 318 320 321 324 325 326 326 326 326 325 325 324 322 324 325 324 324 323 324 324 322 322 322 322 321 323 323 324 326 329 335 335 333 333 332 331 330 332 332
308 309 312 314 315 316 317 319 322 323 325 325 325 325 325 325 321 322 324 324 324 323 324 323 324 323 320 320 319 321 322 320 320 322 328 333 329 326 327 332 330 331 331
305 305 308 310 312 315 316 316 318 320 322 323 323 323 323 322 310 307 319 323 323 322 322 323 323 320 319 312 312 312 316 320 320 319 321 328 329 329 333 331 331 326 323
305 304 306 308 308 311 313 314 317 318 320 321 322 322 323 325 305 303 306 322 322 323 323 322 321 317 316 319 314 311 311 308 310 321 321 327 328 332 333 329 331 328 332
303 304 304 304 306 308 310 311 314 317 318 318 319 321 323 323 304 301 302 320 322 323 323 322 321 318 318 318 319 318 318 321 323 323 325 326 330 337 335 336 334 333 334
302 303 303 304 304 305 306 309 311 312 315 317 318 319 320 321 303 300 304 318 320 320 320 320 318 317 308 302 318 316 318 319 315 307 307 305 309 309 322 333 328 328 328
302 303 303 303 303 303 304 306 308 310 310 311 313 317 313 319 302 298 305 318 318 316 318 317 305 311 303 301 316 316 313 316 321 320 325 316 316 318 308 330 334 330 329
302 302 302 302 302 303 303 305 306 307 308 310 310 314 316 316 316 298 298 317 315 313 313 313 314 300 299 299 300 314 313 316 315 319 326 331 330 329 323 328 334 336 332
299 300 300 301 301 301 302 303 304 305 306 307 308 309 311 315 305 299 297 299 307 313 312 312 313 299 298 297 300 301 297 299 310 314 320 324 325 324 325 329 336 338 338
297 298 299 298 298 298 300 301 302 303 303 304 305 306 308 310 314 300 296 296 298 310 312 308 301 298 296 298 296 296 295 311 316 313 321 324 326 326 326 331 334 336 335
295 296 297 296 298 299 299 300 300 300 301 302 303 305 306 308 311 312 308 305 298 302 304 309 306 304 302 306 309 309 315 316 315 315 325 328 328 326 325 327 326 329 330
295 295 296 296 297 297 298 298 298 300 301 300 302 303 304 305 306 304 306 309 310 306 307 310 310 310 310 311 313 315 316 317 313 323 327 324 325 323 324 327 327 328 327
293 294 296 295 296 296 296 297 296 295 295 294 294 298 303 299 296 295 296 297 297 296 307 309 309 310 310 312 313 314 316 312 317 327 325 327 325 324 323 327 329 328 327
292 293 294 294 294 294 295 294 294 297 295 294 294 293 293 296 294 294 295 295 295 295 309 307 307 307 311 313 312 314 315 317 325 326 327 327 327 328 325 327 326 327 324
293 293 293 294 294 294 295 295 296 296 297 298 295 294 294 294 294 292 293 294 303 298 310 310 311 312 314 316 314 316 317 322 323 325 326 328 328 328 326 324 325 322 321
291 292 293 294 294 295 296 296 297 297 297 297 299 296 294 294 293 294 292 303 304 307 307 309 312 312 313 317 318 319 321 321 323 324 327 328 329 328 326 324 322 306 311
291 291 291 293 292 292 293 294 295 296 296 299 300 300 300 294 295 296 299 303 307 309 310 311 311 314 316 317 319 320 321 321 324 327 328 329 329 327 324 325 324 321 320
290 290 289 290 291 293 294 296 299 303 302 301 300 298 293 298 298 300 302 305 305 306 309 312 315 317 318 319 321 322 322 323 325 329 329 329 328 325 326 326 323 321 322
289 289 291 292 295 303 310 306 306 306 306 304 301 295 290 304 303 303 305 307 309 310 313 314 313 316 320 322 324 325 322 323 327 329 328 327 327 327 326 323 323 323 323
290 291 294 304 306 299 303 304 302 304 306 306 303 301 306 309 309 309 310 312 310 309 312 312 319 322 323 324 325 325 324 327 329 331 329 327 327 326 324 324 324 323 323
294 297 305 302 302 302 301 301 299 295 300 300 300 300 300 302 302 303 305 307 310 312 315 318 322 323 324 325 325 327 330 332 332 332 330 328 324 319 325 325 324 324 322
305 306 303 302 300 299 299 298 298 297 297 297 298 298 298 298 298 300 301 302 304 303 304 308 313 320 326 328 330 328 305 295 325 310 327 324 325 326 326 325 322 317 312
302 302 300 299 299 298 296 295 294 295 294 294 294 295 295 295 297 297 297 298 298 299 301 301 303 306 307 306 302 293 292 294 306 300 323 320 318 320 320 317 312 305 303
Wind_Speed
4 4 6 8 7 6 7 10 10 10 11 11 10 10 9 9 8 8 7 6 6 4 3 4 4 5 6 5 5 6 6 6 12 8 6 4 10 10 4 6 7 7 6
4 4 6 7 7 8 10 8 9 11 11 11 11 11 10 9 8 8 7 5 5 5 4 3 4 4 5 5 5 6 6 7 9 14 8 5 8 8 8 10 5 5 4
4 4 9 10 11 9 8 9 14 12 11 11 11 11 11 10 10 10 9 8 7 6 5 4 4 4 4 5 6 6 7 7 9 9 7 4 3 3 5 6 6 5 3
13 13 10 8 11 8 10 12 14 14 14 13 13 13 14 13 13 12 11 10 9 8 7 6 5 5 6 7 7 8 8 9 10 10 9 7 4 3 5 6 5 4 4
9 11 14 13 10 9 9 12 13 13 15 15 15 14 14 13 12 15 13 12 11 10 9 8 8 8 8 9 8 9 10 10 9 9 10 8 5 4 6 5 7 5 5
9 8 9 9 7 9 8 6 10 14 15 15 16 16 16 13 13 14 12 12 13 12 11 11 10 9 11 13 13 13 12 12 13 11 11 12 10 8 7 6 6 3 4
12 12 12 12 12 11 8 7 9 10 11 14 15 16 16 16 16 17 18 13 13 12 11 10 10 9 9 13 12 12 13 17 19 15 16 15 12 12 8 8 10 8 7
13 13 13 13 13 13 12 11 9 8 10 11 13 15 15 14 17 19 18 16 13 12 11 11 11 12 12 12 14 16 17 16 14 11 12 14 15 10 9 9 10 7 2
15 15 14 14 15 14 15 14 12 11 10 11 11 13 15 15 15 18 17 14 14 13 11 12 12 11 12 11 14 15 18 16 11 11 16 9 9 11 8 5 5 8 7
18 17 15 15 16 17 17 16 14 14 13 12 13 13 14 15 12 15 17 12 13 11 10 11 12 14 11 13 14 14 17 15 12 14 6 4 9 7 10 8 8 10 6
18 18 19 19 18 17 17 17 16 15 15 15 15 14 15 15 15 17 19 14 12 11 10 10 10 15 17 16 15 15 15 12 13 13 12 8 7 7 6 8 11 9 7
22 22 22 19 14 14 18 17 17 16 17 17 16 15 14 15 15 16 18 19 12 12 11 10 11 12 16 16 14 13 10 8 9 10 10 8 8 4 5 8 9 7 5
18 17 14 15 14 14 15 15 13 17 15 15 15 15 14 14 14 18 19 19 18 14 12 12 11 13 15 12 15 14 9 10 11 9 10 9 6 5 6 6 7 8 6
19 17 16 17 18 17 13 14 15 15 15 15 15 15 14 13 13 13 13 12 15 14 14 12 13 12 12 11 9 10 11 11 10 10 9 6 6 7 5 7 7 7 7
16 16 15 14 16 14 14 13 13 15 15 15 14 15 14 15 15 14 14 14 13 13 11 12 12 12 13 13 12 13 11 10 9 11 7 7 7 6 6 8 7 6 7
16 14 13 12 12 11 12 13 21 26 22 21 23 17 13 15 8 14 15 14 12 11 12 12 11 12 13 13 12 11 11 10 10 10 8 10 9 9 8 8 8 8 6
15 14 11 13 12 13 13 14 14 14 25 30 29 25 26 20 15 14 15 17 17 13 12 11 11 11 11 12 10 11 9 9 11 8 9 10 10 8 11 10 8 7 6
15 20 13 13 12 13 13 14 13 14 13 11 26 26 28 28 23 13 17 15 9 8 11 12 12 12 11 11 8 10 9 8 8 8 8 11 11 11 10 8 8 7 6
13 11 11 12 12 14 12 12 12 13 13 13 12 14 27 26 26 25 14 9 10 12 13 11 12 11 9 8 8 9 9 8 8 8 8 9 10 11 11 9 8 7 7
13 18 15 12 13 11 11 12 11 11 12 11 11 14 10 14 12 14 13 13 12 13 13 12 12 11 10 9 8 9 8 9 9 9 11 11 11 10 9 10 9 9 7
10 12 13 11 12 11 10 10 9 4 1 2 3 6 13 13 12 12 13 11 9 8 9 11 11 11 11 9 9 9 10 9 10 12 12 12 11 9 9 9 8 7 7
9 10 10 10 9 8 1 6 4 5 4 6 8 8 12 9 9 10 10 10 12 12 11 9 8 10 10 9 11 10 9 9 10 13 12 12 11 10 9 9 9 7 7
8 9 9 4 5 6 8 8 8 6 6 9 10 8 6 9 11 13 13 12 10 9 9 10 10 8 9 8 8 8 9 11 12 12 13 12 10 10 9 8 8 7 5
7 7 3 7 7 7 8 8 9 10 10 10 9 7 6 7 7 7 6 6 8 7 7 6 7 10 10 9 8 8 8 12 12 13 15 12 10 10 8 7 7 8 7
3 6 7 8 8 6 8 10 10 9 10 9 8 8 8 8 7 8 7 7 9 9 9 8 7 9 13 16 14 14 9 7 13 10 11 12 10 12 10 8 9 8 8
8 8 8 8 9 8 8 10 11 10 10 10 10 9 8 8 8 9 10 11 10 11 13 10 13 17 16 13 14 13 13 12 12 12 12 10 9 9 10 12 14 9 10
Wind_Direction
196 214 242 222 209 210 216 187 192 177 184 187 190 197 208 213 207 201 202 195 200 207 236 259 268 285 275 277 274 269 262 242 265 267 246 257 273 263 318 264 248 250 216
248 222 236 247 217 206 226 235 219 200 191 193 192 200 208 215 209 209 200 185 199 202 207 235 257 260 271 281 280 300 305 289 270 264 264 260 267 302 281 268 242 225 212
57 340 288 254 225 220 213 228 243 218 211 205 195 209 212 213 210 206 205 201 205 212 213 218 238 250 274 288 285 291 286 284 284 277 275 255 254 220 256 253 238 214 171
339 338 334 329 289 247 233 233 228 233 219 206 213 216 213 213 212 214 212 210 209 214 218 238 256 270 283 293 292 289 284 284 276 275 275 263 225 207 220 231 214 192 174
4 342 330 324 319 295 250 248 242 238 233 219 215 216 226 222 215 215 215 214 216 221 225 235 244 256 260 269 282 289 293 281 284 281 279 274 227 194 213 221 223 189 195
322 306 294 295 298 287 263 252 256 249 245 236 226 220 215 220 213 206 212 215 218 223 229 236 248 239 250 242 246 247 263 278 279 276 274 264 259 235 233 211 198 169 203
303 299 298 303 294 296 300 294 267 258 256 244 241 231 221 219 201 199 204 220 222 222 224 234 247 264 261 276 272 246 248 237 238 262 270 267 276 250 220 201 196 198 227
287 286 284 281 283 284 280 274 273 265 255 253 244 239 232 224 195 202 199 214 220 218 219 225 241 260 266 269 276 282 279 273 274 256 242 259 262 237 206 215 215 200 152
282 281 280 281 281 279 275 274 273 270 262 254 251 246 238 238 202 195 191 204 215 215 211 224 235 247 256 234 260 274 277 284 274 256 257 278 244 184 201 159 167 194 200
282 282 279 279 275 273 273 269 266 261 259 259 254 245 249 242 200 194 192 213 211 212 216 234 218 241 233 229 249 264 276 278 290 297 251 213 214 187 184 183 209 219 170
283 281 277 279 271 270 271 265 259 257 257 250 250 244 240 235 231 193 192 218 219 215 228 232 240 204 228 236 235 259 267 292 292 294 290 252 219 204 185 208 233 229 201
280 276 273 265 261 268 270 261 254 250 246 246 244 244 238 230 217 196 195 209 210 223 230 241 246 205 215 223 238 247 244 271 275 272 264 226 222 194 197 200 212 215 214
272 267 265 271 270 259 257 264 259 247 243 242 239 235 232 228 223 202 194 200 210 220 235 240 229 208 219 226 236 248 241 257 263 269 244 216 204 168 156 194 177 173 159
273 268 271 271 265 260 253 252 246 245 247 243 240 238 237 231 225 217 205 207 219 211 228 232 231 235 232 256 245 228 240 249 252 256 223 198 160 167 161 168 156 170 178
273 271 267 261 257 254 246 242 240 241 240 239 239 241 236 233 229 220 214 210 214 215 219 228 227 230 238 240 240 243 246 245 242 233 180 164 171 162 155 168 161 176 192
268 263 260 260 259 255 253 253 240 239 238 233 239 243 239 246 239 192 186 188 190 176 208 220 221 232 233 233 236 241 235 226 234 195 176 185 176 161 162 165 163 189 190
268 270 266 261 259 256 251 252 257 245 230 234 234 230 230 239 215 197 190 189 188 164 215 213 216 219 224 230 228 236 234 222 208 181 182 177 174 170 165 169 170 173 157
271 268 265 261 256 253 252 252 252 254 250 239 226 225 224 219 218 200 190 181 186 210 212 225 215 217 223 226 205 228 223 207 187 171 178 179 171 165 175 162 164 158 152
274 270 267 265 261 256 254 252 249 247 242 242 236 212 219 210 207 210 183 203 206 208 214 219 228 234 233 230 217 218 209 186 164 158 177 170 170 171 165 163 153 150 148
276 272 266 272 272 266 254 250 249 247 248 239 227 217 182 182 187 196 201 211 199 209 221 212 222 231 226 225 222 205 191 165 163 173 174 160 172 165 160 167 162 160 176
282 279 273 270 268 259 247 240 242 210 183 175 123 126 152 164 172 177 184 182 190 212 226 224 220 219 217 226 207 178 164 161 174 168 167 164 165 156 157 157 158 152 160
273 276 276 271 274 278 85 190 149 157 132 109 98 108 128 131 147 165 177 192 208 208 228 220 228 237 220 185 178 154 156 160 165 165 159 153 167 157 152 161 160 160 155
271 274 279 290 53 40 52 51 57 60 93 99 113 134 161 144 163 175 186 192 192 196 215 233 208 157 156 151 155 157 155 160 165 158 157 158 148 148 166 158 152 155 161
278 281 50 56 49 55 65 72 70 60 74 77 81 80 81 92 97 107 119 136 142 145 141 122 126 126 124 130 148 157 166 160 156 158 147 140 138 144 157 138 143 141 135
344 59 54 59 57 48 65 68 64 60 68 70 77 78 83 87 90 92 92 90 86 84 75 81 76 101 129 134 139 135 115 121 132 121 122 119 133 140 127 120 122 111 107
49 50 55 61 63 49 51 63 67 62 54 56 56 59 74 77 80 76 69 77 79 74 75 67 71 83 89 86 91 91 87 88 92 95 110 108 100 102 107 107 106 97 94